Location: ????????
(55.3155°N, 39.2900°E)
Time: 19:04:12
(UTC+00:00)

ACS3 Solar Sail - Pass Details

Date: 21 November 2025
Orbit: 889 x 1003 km, 97.3° (Epoch: 06 December)

Event Time Altitude Azimuth Distance (km) Brightness Sun altitude
Rises 00:33:12 0° 14° (NNE) 3,576 5.2 -38.0°
Reaches altitude 10° 00:35:38 10° 18° (NNE) 2,645 4.4 -37.7°
Enters shadow 00:38:44 32° 29° (NNE) 1,557 3.1 -37.3°
